CAPE
0 0 0 0 0 0 0 0 0 0 0 0 0 0 0 0 0 0 0 0 0 0 0 0 0 0 0 0 0 0 0 4 224 189 46 4 11 0 581 975 748 739 535 878
0 0 0 0 0 0 0 0 0 0 0 0 0 0 0 0 0 0 0 0 0 0 0 0 0 3 1 0 0 0 0 0 0 78 84 37 236 221 124 184 275 567 873 876
0 0 0 0 0 0 0 0 0 0 0 0 0 0 0 0 0 0 0 0 0 0 0 0 2 0 0 0 0 0 0 0 0 0 0 6 3 53 106 118 34 62 162 96
0 0 0 0 0 0 0 0 0 0 0 0 0 0 0 0 0 0 0 0 0 0 0 0 0 0 0 0 0 0 0 0 0 0 0 0 0 0 7 21 52 22 56 65
0 0 0 0 0 0 0 0 0 0 0 0 0 0 0 0 0 0 0 0 0 0 0 0 0 0 0 0 0 0 0 0 0 0 0 0 0 0 1 16 8 5 7 31
0 0 0 0 0 0 0 0 0 0 0 0 0 0 0 0 0 0 0 0 0 0 0 0 0 0 0 0 0 0 0 0 0 0 0 0 0 0 0 4 41 35 26 5
0 0 0 0 0 0 0 0 0 0 0 0 0 0 0 0 0 0 0 0 0 0 0 0 0 0 0 0 0 0 0 0 0 0 0 0 0 0 0 0 0 8 11 2
0 0 0 0 0 0 0 0 0 0 0 0 0 0 0 0 1 0 1 0 0 0 0 0 0 0 0 0 0 0 0 0 0 0 0 0 0 0 0 0 0 0 0 5
0 0 0 0 0 0 0 0 0 0 0 0 0 0 0 0 0 17 8 0 0 0 0 4 2 0 0 0 0 0 0 0 0 0 0 0 0 0 0 0 0 0 0 0
0 0 0 0 0 0 0 0 0 0 1 0 0 0 0 0 0 7 9 0 0 0 0 0 0 0 0 0 0 0 0 0 0 0 0 0 0 0 0 0 0 0 0 0
0 0 0 0 0 0 0 0 0 0 0 19 1 0 0 0 0 15 0 0 0 0 0 0 0 0 0 0 0 0 0 0 0 0 0 0 0 0 0 0 0 0 0 0
0 0 0 0 0 0 0 0 0 10 1 5 2 0 0 0 0 0 0 1 0 0 0 0 0 0 0 0 0 0 0 0 0 0 0 0 0 0 0 0 0 0 0 0
0 0 0 0 0 0 0 0 0 1 0 0 0 0 0 0 0 0 0 6 0 0 0 0 0 0 0 0 0 0 0 0 0 0 0 0 0 0 0 0 0 0 0 0
0 0 0 0 0 1 1 1 8 4 0 0 0 0 0 0 0 0 0 0 0 3 0 0 0 0 0 0 0 0 0 0 0 0 0 0 0 0 0 0 0 0 0 0
0 0 0 0 0 0 7 12 13 6 0 2 0 4 1 0 0 0 0 0 0 0 0 0 0 0 0 0 0 0 0 0 1 0 0 0 0 0 0 0 0 0 0 0
0 0 0 0 0 0 0 0 0 7 0 0 4 1 15 7 0 0 0 0 0 0 0 0 0 0 0 0 0 0 0 0 0 0 0 0 0 0 0 0 0 0 0 0
0 0 0 0 0 0 0 0 1 12 2 14 1 9 1 0 0 0 0 0 0 0 0 0 0 0 0 0 0 0 0 0 0 0 0 0 0 0 0 0 0 0 0 0
0 0 0 0 0 0 0 1 11 0 0 1 0 0 0 0 0 0 0 0 0 0 0 0 0 0 0 0 0 0 0 0 0 0 0 0 0 0 0 0 0 0 0 0
0 0 0 0 0 0 0 2 9 2 1 0 0 0 0 0 0 0 0 0 0 0 0 0 0 0 0 0 0 0 0 0 0 0 0 0 0 0 0 0 0 0 0 0
0 0 0 0 0 0 0 0 0 21 2 2 0 0 0 0 0 0 0 0 0 0 0 0 0 0 0 0 0 0 0 0 0 0 0 0 0 0 0 0 0 0 0 0
0 0 0 0 0 0 0 0 0 0 0 0 0 0 0 0 0 0 0 0 0 0 0 0 0 0 0 0 0 0 0 0 0 0 0 0 0 0 0 0 0 0 0 0
0 0 0 0 1 1 0 0 0 0 0 0 0 0 0 0 0 0 0 0 0 0 0 0 0 0 0 0 0 0 0 0 0 0 0 0 0 0 0 0 0 0 0 0
1 0 0 0 4 0 0 0 0 0 0 0 0 0 0 0 0 12 0 0 1 0 0 0 0 0 0 0 0 1 0 0 0 0 0 0 0 0 0 0 0 3 4 9
1 0 1 0 0 0 0 0 0 0 0 0 0 1 0 2 6 2 3 2 2 2 6 1 0 1 3 0 0 0 0 0 0 0 0 2 0 0 12 30 27 20 15 25
0 0 0 0 0 0 0 0 0 0 1 1 0 0 2 1 8 3 2 2 0 1 0 0 0 0 0 0 0 0 0 0 2 4 1 1 5 5 4 10 10 17 18 24
0 0 0 0 0 0 1 0 0 2 1 0 0 1 6 4 2 4 0 4 4 1 2 4 3 3 1 2 3 2 0 0 0 1 3 3 3 3 4 8 7 0 0 0
CIN
-0 -0 -0 -0 -0 -0 -0 -0 -0 -0 -0 -0 -0 -0 -0 -0 -0 -0 -0 -0 -0 -0 -0 -0 -0 -0 -0 -0 -0 -0 -0 -191 -255 -214 -154 -61 -92 -0 -56 -96 -91 -99 -128 -106
-0 -0 -0 -0 -0 -0 -0 -0 -0 -0 -0 -0 -0 -0 -0 -0 -0 -0 -0 -0 -0 -0 -0 -0 -0 -245 -58 -0 -0 -0 -0 -0 -0 -323 -314 -267 -148 -124 -112 -123 -129 -119 -93 -105
-0 -0 -0 -0 -0 -0 -0 -0 -0 -0 -0 -0 -0 -0 -0 -0 -0 -0 -0 -0 -0 -0 -0 -0 -135 -0 -0 -0 -0 -0 -0 -0 -0 -0 -54 -332 -324 -242 -154 -144 -133 -108 -87 -184
-0 -0 -0 -0 -0 -0 -0 -0 -0 -0 -0 -0 -0 -0 -0 -0 -0 -0 -0 -0 -0 -0 -0 -0 -0 -0 -0 -0 -0 -0 -0 -0 -0 -0 -0 -0 -0 -0 -201 -149 -143 -129 -77 -79
-0 -0 -0 -0 -0 -0 -0 -0 -0 -0 -0 -0 -0 -0 -0 -0 -0 -0 -0 -0 -0 -0 -0 -0 -0 -0 -0 -0 -0 -0 -0 -0 -0 -0 -0 -0 -0 -0 -86 -180 -209 -166 -139 -155
-0 -0 -0 -0 -0 -0 -0 -0 -0 -0 -0 -0 -0 -0 -0 -0 -0 -0 -0 -0 -0 -0 -0 -0 -0 -0 -0 -0 -0 -0 -0 -0 -0 -0 -0 -0 -0 -0 -0 -93 -208 -203 -194 -168
-0 -0 -0 -0 -0 -0 -0 -0 -0 -0 -0 -0 -0 -0 -0 -0 -0 -0 -0 -0 -0 -0 -0 -0 -0 -0 -0 -0 -0 -0 -0 -0 -0 -0 -0 -0 -0 -0 -0 -0 -0 -98 -291 -215
-0 -0 -0 -0 -0 -0 -0 -0 -0 -0 -0 -0 -0 -0 -0 -0 -113 -10 -61 -0 -0 -0 -0 -0 -0 -0 -0 -0 -0 -0 -0 -0 -0 -0 -0 -0 -0 -0 -0 -0 -0 -0 -0 -236
-0 -0 -0 -0 -0 -0 -0 -0 -0 -0 -0 -0 -0 -0 -0 -0 -0 -95 -74 -0 -0 -0 -0 -357 -325 -18 -0 -0 -0 -0 -0 -0 -0 -0 -0 -0 -0 -0 -0 -0 -0 -0 -0 -22
-0 -0 -0 -0 -0 -0 -0 -0 -0 -58 -56 -0 -0 -0 -0 -0 -0 -117 -85 -0 -0 -0 -0 -0 -0 -0 -0 -0 -0 -0 -0 -0 -0 -0 -0 -0 -0 -0 -0 -0 -0 -0 -0 -0
-0 -0 -0 -0 -0 -0 -0 -0 -0 -0 -0 -11 -10 -0 -0 -0 -0 -125 -0 -0 -0 -0 -0 -0 -0 -0 -0 -0 -0 -0 -0 -0 -0 -0 -0 -0 -0 -0 -0 -0 -0 -0 -0 -0
-0 -0 -0 -0 -0 -0 -0 -0 -1 -44 -35 -47 -41 -0 -36 -0 -0 -0 -0 -60 -0 -0 -0 -0 -0 -0 -0 -0 -0 -0 -0 -0 -0 -0 -0 -0 -0 -0 -0 -0 -0 -0 -0 -0
-0 -0 -0 -0 -0 -0 -0 -0 -16 -87 -0 -0 -0 -0 -0 -0 -0 -0 -1 -15 -8 -0 -0 -0 -0 -0 -0 -0 -0 -0 -0 -0 -0 -0 -0 -0 -0 -0 -0 -0 -0 -0 -0 -0
-0 -0 -0 -0 -2 -9 -59 -58 -63 -65 -3 -0 -0 -0 -0 -12 -0 -0 -0 -0 -13 -21 -20 -0 -0 -0 -0 -0 -0 -0 -0 -0 -0 -0 -0 -0 -0 -0 -0 -0 -0 -0 -0 -0
-0 -0 -0 -0 -0 -3 -35 -48 -58 -24 -0 -11 -0 -54 -59 -0 -5 -8 -0 -0 -0 -0 -0 -0 -11 -0 -0 -0 -0 -0 -0 -0 -95 -0 -0 -0 -0 -0 -0 -0 -0 -0 -0 -0
-0 -0 -0 -0 -0 -0 -0 -0 -0 -33 -0 -0 -18 -7 -54 -42 -0 -0 -0 -0 -2 -0 -0 -0 -0 -0 -0 -0 -0 -0 -0 -0 -0 -0 -0 -0 -0 -0 -0 -0 -0 -0 -0 -0
-0 -0 -0 -0 -0 -0 -0 -0 -2 -19 -16 -33 -11 -24 -38 -0 -0 -0 -0 -0 -0 -0 -0 -0 -0 -0 -0 -0 -0 -0 -0 -0 -0 -0 -0 -0 -0 -0 -0 -0 -0 -0 -0 -0
-0 -0 -0 -0 -0 -0 -0 -17 -26 -0 -0 -0 -0 -0 -0 -0 -0 -0 -0 -0 -0 -0 -0 -0 -0 -0 -0 -0 -0 -0 -0 -0 -0 -0 -0 -0 -0 -0 -0 -0 -0 -0 -0 -0
-0 -0 -0 -0 -0 -0 -0 -33 -34 -28 -1 -13 -0 -0 -0 -0 -0 -0 -0 -0 -0 -0 -0 -0 -0 -0 -0 -0 -0 -0 -0 -0 -0 -0 -0 -0 -0 -0 -0 -0 -0 -0 -0 -0
-0 -0 -0 -0 -0 -0 -0 -0 -0 -22 -2 -0 -0 -0 -0 -0 -0 -0 -0 -0 -0 -0 -0 -0 -0 -0 -0 -0 -0 -0 -0 -0 -0 -0 -0 -0 -0 -0 -0 -0 -0 -0 -0 -0
-0 -0 -0 -0 -0 -0 -0 -0 -16 -1 -0 -2 -0 -0 -0 -0 -0 -0 -0 -0 -0 -0 -0 -0 -0 -0 -0 -0 -0 -0 -0 -0 -0 -0 -0 -0 -0 -0 -0 -0 -0 -0 -0 -0
-7 -0 -0 -0 -0 -1 -0 -0 -0 -0 -0 -0 -0 -0 -0 -0 -0 -0 -0 -0 -0 -0 -0 -0 -0 -0 -0 -0 -0 -0 -0 -0 -0 -0 -0 -0 -0 -0 -0 -0 -0 -0 -0 -0
-1 -1 -0 -0 -11 -0 -0 -0 -0 -0 -0 -0 -0 -0 -0 -0 -0 -0 -0 -0 -1 -0 -0 -0 -0 -0 -0 -0 -0 -3 -0 -0 -0 -0 -0 -0 -0 -0 -0 -0 -0 -4 -4 -1
-2 -0 -8 -0 -0 -0 -0 -0 -0 -0 -0 -0 -0 -0 -0 -0 -0 -0 -2 -0 -0 -0 -1 -0 -0 -0 -0 -0 -0 -0 -0 -0 -0 -0 -0 -1 -0 -0 -1 -2 -2 -1 -0 -0
-0 -0 -0 -0 -0 -0 -0 -0 -0 -0 -0 -0 -0 -0 -0 -0 -1 -0 -0 -0 -0 -0 -0 -0 -0 -0 -0 -0 -0 -0 -0 -0 -0 -1 -0 -0 -0 -0 -3 -2 -2 -0 -1 -1
-0 -0 -0 -0 -0 -2 -4 -1 -0 -0 -0 -0 -0 -0 -0 -0 -0 -0 -0 -0 -0 -0 -0 -0 -0 -0 -0 -0 -0 -0 -0 -0 -0 -0 -0 -0 -0 -0 -0 -0 -0 -1 -0 -0
Wind_Speed
20 16 11 16 17 20 24 30 35 36 28 32 35 38 42 37 39 35 36 30 33 32 29 27 24 20 18 17 17 18 23 25 24 25 32 35 39 33 29 32 32 31 32 33
22 23 17 6 12 5 7 15 27 32 32 35 39 43 44 39 35 31 31 34 31 26 25 22 21 20 20 18 16 18 24 25 26 25 25 28 30 36 35 31 34 32 31 36
5 8 23 15 8 10 11 15 28 35 35 33 36 41 42 40 33 31 28 29 29 26 25 22 21 21 20 20 20 19 22 28 28 27 27 27 30 30 34 33 31 32 38 37
24 27 29 31 31 28 26 21 26 31 32 34 25 39 40 39 37 35 36 36 35 28 25 25 25 24 22 20 17 18 20 23 29 27 27 28 32 35 37 35 35 35 35 39
18 28 31 33 29 27 25 24 25 28 26 31 27 33 30 39 46 44 43 44 43 37 27 24 27 24 21 18 17 16 17 20 23 24 24 27 33 33 30 31 32 34 33 36
13 19 20 19 23 25 26 25 24 25 28 30 29 30 31 38 41 45 46 48 50 53 39 30 28 25 21 17 14 15 16 17 18 23 26 27 30 31 32 32 33 32 32 34
21 20 19 20 24 25 25 26 31 30 30 30 33 31 28 34 32 35 40 44 50 50 40 27 24 23 19 15 14 14 15 18 19 19 26 26 28 29 30 30 30 32 33 36
27 30 19 17 21 23 25 20 24 30 33 36 29 30 29 29 31 35 32 38 42 35 22 20 20 21 18 14 14 13 15 20 20 21 22 23 25 28 28 28 30 31 32 31
28 31 20 24 24 24 25 23 24 28 29 35 31 27 38 39 33 23 24 27 27 15 9 14 16 16 13 12 12 14 15 17 21 21 21 22 22 24 27 26 27 27 28 31
26 33 21 23 27 24 22 22 26 24 32 33 31 30 28 34 31 32 22 21 25 21 16 16 15 14 13 11 13 16 16 17 18 20 21 21 20 21 21 22 26 24 25 29
30 27 33 26 24 28 27 25 24 24 24 31 33 27 26 24 25 25 19 17 14 16 16 17 27 21 13 15 15 16 17 20 20 21 22 22 22 24 23 22 22 23 25 28
28 28 30 30 25 25 25 26 23 27 29 27 28 33 27 26 27 21 18 18 17 14 20 23 23 23 29 29 24 23 24 22 21 21 21 22 24 24 24 24 26 26 28 26
26 23 33 35 27 23 23 22 22 21 24 26 28 33 27 35 32 30 24 18 23 24 25 29 30 31 29 22 23 30 23 18 20 21 22 24 23 23 23 24 27 27 29 31
24 23 25 29 27 26 29 27 24 24 27 30 29 46 41 36 35 35 34 34 29 19 26 32 36 32 33 31 28 31 35 27 25 26 28 27 24 24 25 29 30 29 29 33
23 26 26 26 26 26 27 28 31 23 23 29 37 41 40 31 30 28 29 30 29 31 28 28 33 41 42 40 37 33 31 24 20 23 25 27 31 32 32 31 31 32 33 35
23 26 23 26 23 22 23 20 14 17 26 25 22 46 28 25 26 26 28 27 25 26 27 26 27 31 32 35 37 33 29 37 32 21 24 27 29 30 31 32 33 36 38 40
18 18 19 22 18 22 22 13 12 21 26 22 8 22 23 25 26 27 27 27 29 29 29 30 31 34 34 33 32 36 35 41 42 37 29 29 29 30 31 34 38 41 44 45
12 14 15 20 21 21 17 19 16 19 21 24 16 19 24 25 27 30 21 26 30 32 33 34 36 37 38 38 39 41 41 42 45 45 38 34 34 38 37 38 39 41 44 47
9 8 14 18 17 16 18 20 22 24 25 25 27 27 28 30 30 27 21 34 36 35 36 38 40 42 43 43 42 45 46 46 47 47 45 41 39 41 42 43 44 46 48 50
16 14 9 13 15 14 16 24 28 28 26 25 25 28 32 34 37 36 35 38 38 41 41 41 42 43 46 47 46 46 46 47 46 43 42 42 41 43 44 45 47 49 51 57
16 14 11 10 11 13 23 29 29 17 25 31 33 35 36 36 35 41 42 43 42 44 47 48 49 50 50 49 50 52 52 52 48 47 47 45 45 46 46 49 50 53 55 55
14 13 13 13 12 14 25 27 27 27 32 38 39 40 43 43 46 50 46 50 51 55 55 55 55 55 53 50 51 54 53 51 51 51 49 49 51 50 49 50 51 49 48 49
14 14 14 11 19 17 26 22 26 31 38 39 42 44 45 43 53 45 56 55 53 54 55 52 53 56 52 48 44 47 46 44 43 47 46 46 45 47 49 50 48 45 42 44
15 21 19 25 16 29 25 22 30 33 37 37 36 40 46 54 56 57 54 54 55 57 54 51 50 51 50 47 47 47 49 44 33 33 42 44 41 33 29 30 34 41 44 41
13 21 22 14 23 36 17 35 34 37 33 33 35 34 40 53 51 55 58 55 53 45 45 47 45 43 41 41 44 45 22 22 28 24 35 29 29 39 25 29 31 31 42 25
18 18 17 10 23 20 16 26 33 33 35 35 39 44 41 48 55 53 54 50 44 43 40 38 36 36 36 33 32 30 16 20 27 28 23 16 17 21 27 26 44 27 35 38
Wind_Direction
300 317 325 314 308 303 301 296 291 292 300 298 295 291 287 292 294 277 271 271 267 268 268 265 257 251 255 258 263 270 265 268 270 271 266 267 260 269 272 266 269 266 262 264
286 224 205 192 214 289 285 304 300 299 302 300 293 290 286 288 294 290 277 269 271 273 268 260 250 248 249 251 260 267 267 268 272 273 276 269 271 263 261 265 268 275 274 266
183 269 278 332 317 307 304 310 306 301 304 303 302 292 289 288 295 291 282 280 278 273 267 259 249 246 248 251 259 264 269 268 271 275 277 278 272 273 269 270 267 272 269 269
302 300 302 299 299 308 312 318 313 310 309 304 313 301 294 290 289 289 286 285 283 278 272 262 253 251 248 254 258 267 274 275 272 275 275 275 272 273 274 272 271 266 269 271
320 306 299 295 305 311 314 317 313 313 309 309 309 305 297 295 286 283 285 284 283 282 277 266 251 245 248 251 260 269 276 277 275 274 277 276 274 276 283 279 274 271 265 267
309 319 319 316 314 311 313 311 312 311 309 300 308 304 300 300 292 288 286 285 281 275 276 269 254 244 243 247 257 270 274 276 278 277 278 278 277 277 278 279 276 278 275 272
306 302 306 313 311 310 309 306 304 299 295 286 306 302 297 309 305 296 294 293 283 275 269 257 243 228 230 241 257 269 275 277 277 280 278 278 280 280 279 280 280 277 279 278
307 306 310 310 312 316 317 300 292 301 301 302 307 297 305 310 307 302 302 305 298 282 251 231 219 216 228 243 257 269 278 279 278 281 282 282 282 279 280 283 286 284 283 284
313 308 317 314 315 318 316 306 309 307 310 306 307 305 300 301 305 313 307 314 302 312 261 221 219 221 233 242 250 266 273 277 276 279 280 282 284 282 281 281 285 286 287 287
318 309 317 317 316 317 312 313 305 308 306 302 305 299 298 296 307 304 306 301 297 294 278 259 252 247 242 250 265 272 275 275 274 276 280 283 283 287 287 285 285 287 289 288
312 312 310 315 313 311 309 307 310 308 304 304 307 305 311 307 310 314 309 294 291 284 289 295 271 264 260 272 278 278 277 279 275 274 277 280 283 285 285 286 288 292 293 293
311 310 307 311 314 311 312 308 305 298 302 303 301 307 296 317 303 310 306 297 293 298 287 292 300 291 276 278 283 284 283 281 276 276 276 276 281 283 281 281 285 290 290 295
317 315 312 313 321 326 318 318 313 310 309 295 300 295 315 294 304 292 301 300 288 288 292 284 287 286 292 296 299 293 286 278 278 277 276 278 279 278 278 281 285 287 286 288
322 317 314 311 315 318 312 310 311 305 304 299 296 288 287 298 303 286 288 285 293 296 292 280 280 288 290 287 286 297 297 285 282 283 280 279 279 278 279 281 282 283 283 285
322 316 318 316 317 316 312 307 301 295 292 296 299 287 283 302 305 299 301 302 297 289 290 292 289 273 278 284 285 284 294 297 292 293 288 284 282 283 283 283 283 283 283 284
324 321 323 319 321 320 315 314 297 301 309 307 300 272 293 304 308 306 299 309 307 306 301 299 304 296 289 287 285 281 277 274 287 301 292 287 285 285 286 286 284 283 283 283
326 332 337 333 343 341 335 339 337 320 310 330 336 310 300 301 309 308 310 305 301 306 303 301 303 294 291 296 291 288 286 278 285 293 291 286 285 285 287 287 285 284 284 283
343 347 351 345 351 350 4 343 345 329 322 334 353 308 314 309 307 307 316 314 310 308 305 304 301 292 294 293 289 287 288 286 286 288 286 281 282 284 286 286 285 286 285 284
351 335 346 349 353 353 358 328 308 299 310 327 306 312 320 317 314 317 321 310 306 309 306 302 296 291 288 290 292 290 288 288 287 286 286 283 284 285 286 285 285 285 285 284
18 23 6 2 1 9 1 296 297 302 308 334 332 325 316 316 304 307 315 311 309 303 304 303 299 296 290 288 289 292 291 290 290 291 289 287 286 286 285 285 285 285 284 282
7 8 9 6 5 4 322 305 303 341 316 321 318 317 320 316 314 313 311 307 308 306 302 299 297 294 292 292 291 289 289 288 289 290 289 288 287 286 285 285 284 284 282 281
20 17 19 18 10 360 332 317 335 328 318 315 315 315 311 311 310 308 310 306 302 297 297 296 294 290 293 294 292 288 287 288 289 289 288 287 286 285 284 284 284 283 282 280
18 22 13 16 339 352 333 345 339 332 320 319 316 314 316 317 310 314 300 300 301 300 299 298 295 294 295 295 294 290 292 294 294 292 291 290 288 286 284 282 280 279 277 277
12 324 337 316 359 325 341 345 339 337 330 328 329 326 321 309 304 304 306 303 298 296 299 297 297 293 292 293 292 291 290 295 296 294 295 293 290 279 276 278 278 278 276 273
353 317 331 4 340 316 3 333 338 335 338 337 333 331 328 310 312 308 296 295 287 276 298 291 276 271 266 263 267 281 254 294 302 269 253 253 252 251 272 246 242 262 268 257
328 344 3 21 354 354 345 346 341 341 340 338 334 330 328 324 311 311 294 289 292 284 276 271 267 264 262 260 257 253 299 250 250 251 249 258 266 265 258 263 281 230 213 208